COSMOS 1755

Satellite information

Favourite Embed

Satellite Type and Status

PAYLOADIN ORBIT

Key statistics

Satellite COSMOS 1755 at a glance.

Uptime

14221

Days in orbit

Revolutions

≈ 12.5

Per day

Orbit

LEO

Low Earth Orbit

Inclination

74.0

Latest

Satellite identification and parameters

Extended collection of information and parameters for COSMOS 1755.

Object identification

Identified? True

Debris? False

Object name: COSMOS 1755

International designator: 1986-042H

Object number (NORAD): 16765

Object ID (CCSDS): 16765

Country: COMMONWEALTH OF INDEPENDENT STATES (CIS)

Current information (Y/N): Y

RCS size: MEDIUM

Orbital parameters

Period: 114.802 minutes

Inclination: 74.0196 deg

SMA: 7824.546 km

Apoapsis: 1469.383 km

Periapsis: 1423.439 km

RAAN: 342.5953 deg

Eccentricy: 0.0029359

Argument of periapsis: 182.0307 deg

Mean anomaly: 190.1648 deg

Mean motion: 12.54336425 rev/day

Mean motion (dot): 0.00000012 rev/day2

B* drag term: 0.00017708 1/REarth

Two-line elements (TLE)

Creation date: May 12, 2025, 2:31 a.m.

Reference frame: TEME

Reference center: EARTH

Epoch: May 11, 2025, 7:43 p.m. UTC

TLE line 0: 0 COSMOS 1755

TLE line 1: 1 16765U 86042H 25131.82188638 .00000012 00000-0 17708-3 0 9990

TLE line 2: 2 16765 74.0196 342.5953 0029359 182.0307 190.1648 12.54336425782645

Live tracking on map

Real-time ground track for satellite COSMOS 1755.

In-orbit conjunctions

There are no conjunctions computed for COSMOS 1755, at the moment. Check back to stay up to date, as we update our databases every day.

Go to all conjunctions

Associated space launch

Military communications satellites

COSMOS 1755 was lifted into orbit during the mission ‘Kosmos-3M | Strela-1M 305-312’, on board a Kosmos-3M space rocket.

The launch took place on June 6, 1986, 3:57 a.m. from 132/1 (132L).

For more information about the launch, click the button.

Launch to space Kosmos-3M | Strela-1M 305-312
Kosmos-3M | Strela-1M 305-312

Agency: N/A

Status: Launch Successful

Launch date: June 6, 1986, 3:57 a.m. UTC

Rocket: Kosmos-3M

Launch pad: 132/1 (132L)

Location: Plesetsk Cosmodrome, Russian Federation

...

Latest news about this satellite

There are no fresh news available about this satellite. Check back as we update our databases every day.


Newsletter sign-up

Weekly statistics, charts and insights to help you stay on top of the space industry.